| time (UTC) | temp F | wind direction | speed knots | gust knots | rain 1hr in | rain 24hr in | rain mn in | humidity % | barometer mb |
| 20260504024020 | 58 | 268 | 7.0 | 10.4 | 0.00 | 0.00 | 0.00 | 45 | 993.6 |
| 20260504023024 | 58 | 243 | 8.7 | 11.3 | 0.00 | 0.00 | 0.00 | 47 | 993.6 |
| 20260504022022 | 59 | 283 | 8.7 | 11.3 | 0.00 | 0.00 | 0.00 | 46 | 993.6 |
| 20260504021020 | 59 | 276 | 7.8 | 10.4 | 0.00 | 0.00 | 0.00 | 43 | 993.8 |
| 20260504020018 | 59 | 282 | 7.8 | 13.0 | 0.00 | 0.00 | 0.00 | 44 | 993.8 |
| 20260504015016 | 60 | 272 | 8.7 | 13.0 | 0.00 | 0.00 | 0.00 | 45 | 993.7 |
| 20260504014026 | 62 | 271 | 7.0 | 10.4 | 0.00 | 0.00 | 0.00 | 36 | 993.6 |
| 20260504013030 | 63 | 268 | 12.2 | 16.5 | 0.00 | 0.00 | 0.00 | 35 | 993.6 |
| 20260504012016 | 63 | 270 | 13.0 | 23.5 | 0.00 | 0.00 | 0.00 | 36 | 993.8 |
| 20260504011020 | 63 | 267 | 15.6 | 19.1 | 0.00 | 0.00 | 0.00 | 35 | 994.1 |
| 20260504010044 | 64 | 277 | 12.2 | 20.9 | 0.00 | 0.00 | 0.00 | 32 | 993.9 |
| 20260504005029 | 65 | 261 | 13.0 | 19.1 | 0.00 | 0.00 | 0.00 | 30 | 993.9 |
| 20260504004033 | 66 | 271 | 13.0 | 19.1 | 0.00 | 0.00 | 0.00 | 31 | 993.8 |
| 20260504003019 | 66 | 247 | 9.6 | 13.0 | 0.00 | 0.00 | 0.00 | 34 | 993.6 |
| 20260504002023 | 66 | 256 | 11.3 | 15.6 | 0.00 | 0.00 | 0.00 | 34 | 994.1 |
| 20260504001026 | 66 | 264 | 13.0 | 20.9 | 0.00 | 0.00 | 0.00 | 34 | 994.3 |
| 20260504000031 | 67 | 264 | 13.0 | 20.9 | 0.00 | 0.00 | 0.00 | 34 | 994.3 |
| 20260503235017 | 68 | 267 | 13.9 | 20.9 | 0.00 | 0.00 | 0.00 | 33 | 994.2 |
| 20260503234021 | 69 | 262 | 12.2 | 16.5 | 0.00 | 0.00 | 0.00 | 34 | 994.1 |
| 20260503233025 | 69 | 253 | 10.4 | 18.2 | 0.00 | 0.00 | 0.00 | 40 | 994.3 |
| 20260503232050 | 70 | 263 | 10.4 | 13.9 | 0.00 | 0.00 | 0.00 | 36 | 994.5 |
| 20260503231015 | 71 | 260 | 13.0 | 19.1 | 0.00 | 0.00 | 0.00 | 39 | 994.6 |
| 20260503230020 | 70 | 268 | 19.1 | 23.5 | 0.00 | 0.00 | 0.00 | 38 | 994.5 |
| 20260503225023 | 71 | 248 | 13.9 | 19.1 | 0.00 | 0.00 | 0.00 | 36 | 994.5 |
| 20260503224027 | 69 | 242 | 13.0 | 18.2 | 0.00 | 0.00 | 0.00 | 37 | 994.4 |
| 20260503223032 | 69 | 256 | 11.3 | 18.2 | 0.00 | 0.00 | 0.00 | 36 | 994.1 |
| 20260503222017 | 70 | 264 | 13.0 | 20.0 | 0.00 | 0.00 | 0.00 | 34 | 994.1 |
| 20260503221021 | 69 | 226 | 9.6 | 13.9 | 0.00 | 0.00 | 0.00 | 31 | 994.6 |
| 20260503220026 | 69 | 251 | 13.0 | 20.0 | 0.00 | 0.00 | 0.00 | 32 | 994.8 |
| 20260503215050 | 69 | 221 | 4.3 | 7.0 | 0.00 | 0.00 | 0.00 | 32 | 995.1 |
| 20260503214016 | 68 | 260 | 4.3 | 6.1 | 0.00 | 0.00 | 0.00 | 32 | 995.4 |
| 20260503213020 | 67 | 263 | 5.2 | 6.1 | 0.00 | 0.00 | 0.00 | 33 | 996.0 |
| 20260503212024 | 68 | 239 | 9.6 | 13.0 | 0.00 | 0.00 | 0.00 | 35 | 996.3 |
| 20260503211022 | 68 | 270 | 6.1 | 7.8 | 0.00 | 0.00 | 0.00 | 33 | 996.9 |
| 20260503210020 | 68 | 229 | 7.8 | 11.3 | 0.00 | 0.00 | 0.00 | 32 | 997.0 |
| 20260503205018 | 68 | 194 | 6.1 | 7.8 | 0.00 | 0.00 | 0.00 | 31 | 996.9 |
| 20260503204016 | 69 | 256 | 7.8 | 9.6 | 0.00 | 0.00 | 0.00 | 31 | 996.9 |
| 20260503203027 | 68 | 244 | 4.3 | 5.2 | 0.00 | 0.00 | 0.00 | 31 | 997.2 |
| 20260503202030 | 72 | 240 | 11.3 | 13.0 | 0.00 | 0.00 | 0.00 | 28 | 997.5 |
| 20260503201016 | 73 | 276 | 9.6 | 11.3 | 0.00 | 0.00 | 0.00 | 28 | 998.0 |
| 20260503200020 | 71 | 239 | 8.7 | 13.0 | 0.00 | 0.00 | 0.00 | 29 | 998.5 |
| 20260503195025 | 71 | 252 | 10.4 | 15.6 | 0.00 | 0.00 | 0.00 | 28 | 998.9 |
| 20260503194050 | 72 | 243 | 8.7 | 13.9 | 0.00 | 0.00 | 0.00 | 29 | 999.1 |
| 20260503193015 | 73 | 247 | 7.8 | 10.4 | 0.00 | 0.00 | 0.00 | 29 | 999.3 |
| 20260503192019 | 71 | 221 | 8.7 | 12.2 | 0.00 | 0.00 | 0.00 | 29 | 999.7 |
| 20260503191023 | 71 | 240 | 8.7 | 13.0 | 0.00 | 0.00 | 0.00 | 30 | 1000.0 |
| 20260503190027 | 71 | 250 | 7.8 | 11.3 | 0.00 | 0.00 | 0.00 | 30 | 1000.4 |
| 20260503185031 | 70 | 238 | 7.0 | 9.6 | 0.00 | 0.00 | 0.00 | 32 | 1000.7 |
| 20260503184018 | 69 | 232 | 6.1 | 10.4 | 0.00 | 0.00 | 0.00 | 32 | 1001.1 |
| 20260503183022 | 68 | 218 | 6.1 | 8.7 | 0.00 | 0.00 | 0.00 | 32 | 1001.8 |
| 20260503182046 | 68 | 223 | 7.8 | 9.6 | 0.00 | 0.00 | 0.00 | 31 | 1002.3 |
| 20260503181031 | 69 | 237 | 7.0 | 9.6 | 0.00 | 0.00 | 0.00 | 30 | 1002.5 |
| 20260503180017 | 70 | 240 | 7.0 | 13.0 | 0.00 | 0.00 | 0.00 | 29 | 1002.7 |
| 20260503175020 | 69 | 212 | 7.8 | 11.3 | 0.00 | 0.00 | 0.00 | 29 | 1002.9 |
| 20260503174024 | 69 | 213 | 7.0 | 9.6 | 0.00 | 0.00 | 0.00 | 31 | 1003.2 |
| 20260503173028 | 68 | 234 | 5.2 | 7.8 | 0.00 | 0.00 | 0.00 | 34 | 1003.5 |
| 20260503172032 | 67 | 254 | 6.1 | 9.6 | 0.00 | 0.00 | 0.00 | 35 | 1004.0 |
| 20260503171018 | 67 | 239 | 7.0 | 9.6 | 0.00 | 0.00 | 0.00 | 34 | 1004.6 |
| 20260503131026 | 44 | 228 | 3.5 | 4.3 | 0.00 | 0.00 | 0.00 | 59 | 1008.8 |
| 20260503081022 | 31 | 225 | 1.7 | 1.7 | 0.00 | 0.00 | 0.00 | 87 | 1010.4 |
| 20260503072044 | 31 | 0.0 | 0.0 | 0.00 | 0.00 | 0.00 | 82 | 1010.5 | |
| 20260503071029 | 32 | 0.0 | 0.0 | 0.00 | 0.00 | 0.00 | 79 | 1010.6 | |
| 20260503055026 | 36 | 0.0 | 0.0 | 0.00 | 0.00 | 0.00 | 70 | 1010.8 | |
| 20260503054023 | 37 | 0.0 | 0.0 | 0.00 | 0.00 | 0.00 | 70 | 1010.8 | |
| 20260503053016 | 38 | 0.0 | 0.0 | 0.00 | 0.00 | 0.00 | 68 | 1011.0 | |
| 20260503052020 | 39 | 0.0 | 0.0 | 0.00 | 0.00 | 0.00 | 68 | 1011.0 | |
| 20260503051018 | 40 | 60 | 0.9 | 1.7 | 0.00 | 0.00 | 0.00 | 65 | 1011.0 |
| 20260503050017 | 41 | 24 | 1.7 | 2.6 | 0.00 | 0.00 | 0.00 | 64 | 1011.1 |
| 20260503045033 | 42 | 48 | 2.6 | 2.6 | 0.00 | 0.00 | 0.00 | 63 | 1011.1 |
| 20260503044039 | 43 | 47 | 2.6 | 4.3 | 0.00 | 0.00 | 0.00 | 61 | 1011.0 |
| 20260503043022 | 44 | 37 | 3.5 | 4.3 | 0.00 | 0.00 | 0.00 | 60 | 1010.8 |
| 20260503042026 | 44 | 37 | 3.5 | 4.3 | 0.00 | 0.00 | 0.00 | 59 | 1011.0 |
| 20260503041030 | 45 | 34 | 3.5 | 5.2 | 0.00 | 0.00 | 0.00 | 59 | 1011.0 |
| 20260503040016 | 46 | 32 | 4.3 | 5.2 | 0.00 | 0.00 | 0.00 | 58 | 1010.8 |
| 20260503035041 | 46 | 41 | 4.3 | 5.2 | 0.00 | 0.00 | 0.00 | 57 | 1010.7 |
| 20260503034025 | 47 | 39 | 4.3 | 5.2 | 0.00 | 0.00 | 0.00 | 56 | 1010.7 |
| 20260503033109 | 48 | 33 | 3.5 | 4.3 | 0.00 | 0.00 | 0.00 | 55 | 1010.7 |
| 20260503032053 | 49 | 45 | 3.5 | 5.2 | 0.00 | 0.00 | 0.00 | 54 | 1010.6 |
| 20260503031019 | 50 | 40 | 4.3 | 6.1 | 0.00 | 0.00 | 0.00 | 53 | 1010.3 |
| 20260503030023 | 50 | 40 | 4.3 | 6.1 | 0.00 | 0.00 | 0.00 | 54 | 1010.4 |
| 20260503025107 | 49 | 27 | 2.6 | 4.3 | 0.00 | 0.00 | 0.00 | 57 | 1010.2 |